When you browse on this site, cookies collect data to enhance your experience and personalize the content and advertising you see.
Visit our Privacy Policy to learn more. By continuing to use the site, you agree to this use of cookies and data.
  • In United Kingdom
  • List of Countries
  • For 7 days
  • Water Temperature
  • Satellite Maps
  • Weather Map
  • Weather Widgets
  • user-avatar
    Login

    Hourly Weather Gloucester

    Today, 26 May, Sunday

    Time Temperature Precipitation Wind Pressure Humidity
    00:00 +12°C° 0 mm 2 mps 756 mmHg 96%
    01:00 +11°C° 0 mm 3 mps 756 mmHg 97%
    02:00 +11°C° 0 mm 3 mps 756 mmHg 97%
    03:00 +11°C° 0 mm 3 mps 755 mmHg 98%
    04:00 +12°C° 0 mm 4 mps 755 mmHg 97%
    05:00 +13°C° 0 mm 4 mps 755 mmHg 96%
    06:00 +14°C° 0 mm 5 mps 755 mmHg 95%
    07:00 +14°C° 0.1 mm 5 mps 754 mmHg 94%
    08:00 +14°C° 0.1 mm 5 mps 754 mmHg 94%
    09:00 +14°C° 0.1 mm 5 mps 754 mmHg 94%
    10:00 +15°C° 0.1 mm 6 mps 754 mmHg 92%
    11:00 +16°C° 0.1 mm 6 mps 753 mmHg 91%
    12:00 +16°C° 0.1 mm 6 mps 753 mmHg 90%
    13:00 +16°C° 0.3 mm 6 mps 753 mmHg 91%
    14:00 +15°C° 0.3 mm 5 mps 753 mmHg 92%
    15:00 +14°C° 0.3 mm 4 mps 753 mmHg 93%
    16:00 +14°C° 0 mm 5 mps 753 mmHg 88%
    17:00 +14°C° 0 mm 5 mps 753 mmHg 83%
    18:00 +14°C° 0 mm 6 mps 753 mmHg 78%
    19:00 +12°C° 0 mm 5 mps 753 mmHg 83%
    20:00 +11°C° 0 mm 4 mps 754 mmHg 88%
    21:00 +9°C° 0 mm 3 mps 754 mmHg 93%
    22:00 +9°C° 0 mm 3 mps 754 mmHg 93%
    23:00 +8°C° 0 mm 3 mps 754 mmHg 94%

    Tomorrow, 27 May, Monday

    Time Temperature Precipitation Wind Pressure Humidity
    00:00 +7°C° 0 mm 2 mps 754 mmHg 94%
    01:00 +7°C° 0 mm 2 mps 754 mmHg 95%
    02:00 +7°C° 0 mm 2 mps 754 mmHg 95%
    03:00 +6°C° 0 mm 2 mps 754 mmHg 95%
    04:00 +7°C° 0 mm 3 mps 754 mmHg 94%
    05:00 +8°C° 0 mm 3 mps 754 mmHg 92%
    06:00 +9°C° 0 mm 3 mps 754 mmHg 91%
    07:00 +11°C° 0 mm 4 mps 754 mmHg 85%
    08:00 +12°C° 0 mm 4 mps 753 mmHg 80%
    09:00 +14°C° 0 mm 5 mps 753 mmHg 74%
    10:00 +14°C° 0.3 mm 5 mps 753 mmHg 75%
    11:00 +14°C° 0.3 mm 6 mps 753 mmHg 76%
    12:00 +14°C° 0.3 mm 6 mps 752 mmHg 77%
    13:00 +14°C° 0.2 mm 6 mps 752 mmHg 75%
    14:00 +15°C° 0.2 mm 6 mps 752 mmHg 72%
    15:00 +15°C° 0.2 mm 6 mps 751 mmHg 69%
    16:00 +14°C° 0.4 mm 6 mps 751 mmHg 74%
    17:00 +14°C° 0.4 mm 6 mps 751 mmHg 79%
    18:00 +13°C° 0.4 mm 5 mps 751 mmHg 84%
    19:00 +12°C° 0.1 mm 5 mps 751 mmHg 87%
    20:00 +10°C° 0.1 mm 4 mps 751 mmHg 89%
    21:00 +9°C° 0.1 mm 3 mps 751 mmHg 92%
    22:00 +9°C° 0 mm 3 mps 751 mmHg 93%
    23:00 +9°C° 0 mm 3 mps 751 mmHg 93%

    Day after tomorrow, 28 May, Tuesday

    Time Temperature Precipitation Wind Pressure Humidity
    00:00 +9°C° 0 mm 3 mps 751 mmHg 94%
    01:00 +8°C° 0 mm 3 mps 750 mmHg 94%
    02:00 +7°C° 0 mm 3 mps 750 mmHg 95%
    03:00 +5°C° 0 mm 3 mps 750 mmHg 95%
    04:00 +7°C° 0 mm 3 mps 750 mmHg 94%
    05:00 +7°C° 0 mm 4 mps 750 mmHg 93%
    06:00 +7°C° 0 mm 4 mps 751 mmHg 92%
    07:00 +10°C° 0.1 mm 4 mps 751 mmHg 88%
    08:00 +11°C° 0.1 mm 4 mps 751 mmHg 84%
    09:00 +12°C° 0.1 mm 4 mps 751 mmHg 80%
    10:00 +13°C° 0.6 mm 5 mps 751 mmHg 79%
    11:00 +14°C° 0.6 mm 5 mps 752 mmHg 78%
    12:00 +14°C° 0.6 mm 5 mps 752 mmHg 78%
    13:00 +14°C° 0.5 mm 5 mps 752 mmHg 77%
    14:00 +15°C° 0.5 mm 5 mps 752 mmHg 76%
    15:00 +15°C° 0.5 mm 5 mps 753 mmHg 75%
    16:00 +15°C° 0.3 mm 4 mps 753 mmHg 78%
    17:00 +14°C° 0.3 mm 4 mps 754 mmHg 80%
    18:00 +14°C° 0.3 mm 4 mps 754 mmHg 82%
    19:00 +12°C° 0 mm 4 mps 755 mmHg 86%
    20:00 +11°C° 0 mm 3 mps 755 mmHg 90%
    21:00 +9°C° 0 mm 3 mps 756 mmHg 94%
    22:00 +8°C° 0 mm 3 mps 756 mmHg 95%
    23:00 +7°C° 0 mm 2 mps 757 mmHg 96%

    29 May, Wednesday

    Time Temperature Precipitation Wind Pressure Humidity
    00:00 +6°C° 0 mm 2 mps 757 mmHg 97%
    01:00 +7°C° 0 mm 1 mps 757 mmHg 97%
    02:00 +7°C° 0 mm 1 mps 757 mmHg 97%
    03:00 +6°C° 0 mm 1 mps 758 mmHg 96%
    04:00 +7°C° 0 mm 1 mps 758 mmHg 95%
    05:00 +8°C° 0 mm 1 mps 758 mmHg 94%
    06:00 +9°C° 0 mm 1 mps 758 mmHg 93%
    07:00 +10°C° 0 mm 1 mps 758 mmHg 86%
    08:00 +12°C° 0 mm 2 mps 759 mmHg 79%
    09:00 +12°C° 0 mm 3 mps 759 mmHg 73%
    10:00 +13°C° 0 mm 3 mps 759 mmHg 70%
    11:00 +13°C° 0 mm 3 mps 759 mmHg 67%
    12:00 +13°C° 0 mm 3 mps 759 mmHg 64%
    13:00 +14°C° 0 mm 3 mps 759 mmHg 64%
    14:00 +14°C° 0 mm 4 mps 759 mmHg 65%
    15:00 +14°C° 0 mm 4 mps 759 mmHg 65%
    16:00 +14°C° 0.1 mm 4 mps 759 mmHg 68%
    17:00 +14°C° 0.1 mm 4 mps 759 mmHg 72%
    18:00 +13°C° 0.1 mm 4 mps 759 mmHg 75%
    19:00 +12°C° 0 mm 3 mps 759 mmHg 78%
    20:00 +11°C° 0 mm 3 mps 759 mmHg 81%
    21:00 +9°C° 0 mm 2 mps 759 mmHg 84%
    22:00 +8°C° 0 mm 2 mps 759 mmHg 85%
    23:00 +9°C° 0 mm 1 mps 759 mmHg 86%

    30 May, Thursday

    Time Temperature Precipitation Wind Pressure Humidity
    00:00 +8°C° 0 mm 1 mps 759 mmHg 87%
    01:00 +8°C° 0 mm 1 mps 759 mmHg 87%
    02:00 +7°C° 0 mm 0 mps 759 mmHg 86%
    03:00 +7°C° 0 mm 0 mps 759 mmHg 85%
    04:00 +7°C° 0.1 mm 0 mps 759 mmHg 85%
    05:00 +9°C° 0.1 mm 1 mps 759 mmHg 85%
    06:00 +9°C° 0.1 mm 1 mps 759 mmHg 85%
    07:00 +10°C° 0 mm 1 mps 759 mmHg 83%
    08:00 +11°C° 0 mm 1 mps 759 mmHg 82%
    09:00 +12°C° 0 mm 1 mps 760 mmHg 80%
    10:00 +13°C° 0.2 mm 1 mps 760 mmHg 84%
    11:00 +13°C° 0.2 mm 2 mps 760 mmHg 88%
    12:00 +13°C° 0.2 mm 2 mps 760 mmHg 92%
    13:00 +13°C° 0.1 mm 3 mps 760 mmHg 92%
    14:00 +14°C° 0.1 mm 3 mps 760 mmHg 92%
    15:00 +15°C° 0.1 mm 4 mps 760 mmHg 91%
    16:00 +16°C° 0.1 mm 3 mps 760 mmHg 92%
    17:00 +16°C° 0.1 mm 3 mps 760 mmHg 93%
    18:00 +16°C° 0.1 mm 2 mps 760 mmHg 93%
    19:00 +15°C° 0 mm 2 mps 760 mmHg 94%
    20:00 +15°C° 0 mm 2 mps 760 mmHg 95%
    21:00 +13°C° 0 mm 3 mps 761 mmHg 96%
    22:00 +13°C° 0 mm 3 mps 761 mmHg 96%
    23:00 +13°C° 0 mm 3 mps 761 mmHg 97%

    31 May, Friday

    Time Temperature Precipitation Wind Pressure Humidity
    00:00 +13°C° 0 mm 4 mps 761 mmHg 97%
    01:00 +13°C° 0 mm 4 mps 761 mmHg 97%
    02:00 +13°C° 0 mm 4 mps 760 mmHg 96%
    03:00 +13°C° 0 mm 4 mps 760 mmHg 96%
    04:00 +13°C° 0 mm 5 mps 760 mmHg 95%
    05:00 +13°C° 0 mm 5 mps 761 mmHg 94%
    06:00 +14°C° 0 mm 5 mps 761 mmHg 94%
    07:00 +14°C° 0 mm 6 mps 761 mmHg 92%
    08:00 +14°C° 0 mm 6 mps 761 mmHg 91%
    09:00 +15°C° 0 mm 7 mps 761 mmHg 89%
    10:00 +15°C° 0 mm 7 mps 762 mmHg 87%
    11:00 +16°C° 0 mm 7 mps 762 mmHg 84%
    12:00 +16°C° 0 mm 7 mps 762 mmHg 81%
    13:00 +17°C° 0 mm 7 mps 762 mmHg 80%
    14:00 +17°C° 0 mm 7 mps 762 mmHg 79%
    15:00 +18°C° 0 mm 7 mps 762 mmHg 78%
    16:00 +17°C° 0 mm 6 mps 762 mmHg 80%
    17:00 +17°C° 0 mm 6 mps 762 mmHg 82%
    18:00 +16°C° 0 mm 6 mps 762 mmHg 83%
    19:00 +15°C° 0 mm 5 mps 763 mmHg 84%
    20:00 +15°C° 0 mm 5 mps 763 mmHg 85%
    21:00 +15°C° 0 mm 4 mps 763 mmHg 86%
    22:00 +14°C° 0 mm 4 mps 763 mmHg 89%
    23:00 +13°C° 0 mm 4 mps 763 mmHg 93%
    Show more